This is the latest recevied weather packets stored in our database for station/object DL3NDS-WX. If no packets are shown the sender has not sent any weather packets the latest 1 day(s).
| Time | Temp. | Humidity | Pressure | Rain* | Wind** | Luminosity | Snow |
|---|---|---|---|---|---|---|---|
| 1777998940 | 17.78° C | 67% | 1007.1 hPa | 0 mm | 1.34 m/s, 32° | 83 W/m² | - |
| 1777998877 | 17.78° C | 68% | 1007.1 hPa | 0 mm | 0.89 m/s, 322° | 79 W/m² | - |
| 1777998814 | 17.78° C | 68% | 1007.1 hPa | 0 mm | 0.45 m/s, 34° | 77 W/m² | - |
| 1777998758 | 17.78° C | 68% | 1007.2 hPa | 0 mm | 0 m/s | 77 W/m² | - |
| 1777998700 | 17.78° C | 68% | 1007.1 hPa | 0 mm | 0.89 m/s, 20° | 76 W/m² | - |
| 1777998635 | 18.33° C | 67% | 1007.1 hPa | 0 mm | 0.89 m/s, 18° | 77 W/m² | - |
| 1777998573 | 18.33° C | 67% | 1007.1 hPa | 0 mm | 0.45 m/s, 29° | 77 W/m² | - |
| 1777998511 | 18.33° C | 67% | 1007.2 hPa | 0 mm | 1.34 m/s, 39° | 79 W/m² | - |
| 1777998450 | 18.33° C | 66% | 1007.2 hPa | 0 mm | 1.79 m/s, 40° | 81 W/m² | - |
| 1777998390 | 18.33° C | 67% | 1007.2 hPa | 0 mm | 2.24 m/s, 33° | 83 W/m² | - |
| 1777998336 | 18.33° C | 67% | 1007.2 hPa | 0 mm | 2.24 m/s, 15° | 86 W/m² | - |
| 1777998267 | 18.33° C | 66% | 1007.3 hPa | 0 mm | 1.79 m/s, 5° | 86 W/m² | - |
| 1777998205 | 18.33° C | 66% | 1007.3 hPa | 0 mm | 1.79 m/s, 350° | 88 W/m² | - |
| 1777998144 | 18.33° C | 66% | 1007.3 hPa | 0 mm | 2.24 m/s, 353° | 91 W/m² | - |
| 1777998083 | 18.33° C | 67% | 1007.3 hPa | 0 mm | 0.89 m/s, 25° | 93 W/m² | - |
| 1777998022 | 18.33° C | 66% | 1007.2 hPa | 0 mm | 0.89 m/s, 36° | 98 W/m² | - |
| 1777997961 | 18.33° C | 67% | 1007.3 hPa | 0 mm | 1.34 m/s, 13° | 98 W/m² | - |
| 1777997899 | 18.33° C | 66% | 1007.3 hPa | 0 mm | 2.24 m/s, 40° | 100 W/m² | - |
| 1777997834 | 18.33° C | 66% | 1007.3 hPa | 0 mm | 2.24 m/s, 24° | 100 W/m² | - |
| 1777997776 | 18.33° C | 66% | 1007.3 hPa | 0 mm | 1.79 m/s, 4° | 100 W/m² | - |
| 1777997723 | 18.33° C | 66% | 1007.3 hPa | 0 mm | 1.79 m/s, 43° | 100 W/m² | - |
| 1777997654 | 18.33° C | 66% | 1007.3 hPa | 0 mm | 2.24 m/s, 45° | 100 W/m² | - |
| 1777997593 | 18.33° C | 66% | 1007.3 hPa | 0 mm | 2.68 m/s, 35° | 100 W/m² | - |
| 1777997528 | 18.33° C | 66% | 1007.4 hPa | 0 mm | 2.68 m/s, 22° | 102 W/m² | - |
| 1777997470 | 18.33° C | 66% | 1007.4 hPa | 0 mm | 2.68 m/s, 43° | 102 W/m² | - |
* Rain latest hour (hover to see other rain measurements)
** Current wind speed in m/s (hover to see current wind gust speed)